[[{"header":{"parameterUnit":"m.s-1","parameterCategory":1,"la1":30.2991,"la2":30.254,"lo1":-89.0895,"lo2":-89.0444,"dy":0.0017,"dx":0.0017,"nx":28,"ny":28,"refTime":"2024-10-06T09:00:00:Z","depth":0,"parameterNumber":2,"parameterNumberName":"U-component_of_WINDS"},"data":[0,0,0,0,0,0,0,0,0,0,0,0,0,0,0,0,0,0,0,0,0,0,0,0,0,0,0,0,0,0,0,0,0,0,0,0,0,0,0,0,0,0,0,0,0,0,0,0,0,0,0,0,0,0,0,0,0,0,-1.7064,-1.7064,0,-1.7057,-1.7057,-1.7057,-1.6998,-1.6997,-1.6996,-1.6994,-1.6989,-1.699,-1.6991,0,0,0,0,0,0,0,0,0,0,0,0,0,-1.7028,-1.7029,-1.7064,-1.7064,-1.7064,-1.7057,-1.7057,-1.7057,-1.6999,-1.6997,-1.6995,-1.6994,-1.6988,-1.699,-1.6991,0,0,0,0,0,0,0,0,0,0,0,0,0,-1.7035,-1.703,-1.7064,-1.7034,-1.7031,-1.7057,-1.7057,-1.7057,-1.6999,-1.6997,-1.6995,-1.6993,-1.6988,-1.699,-1.6992,-1.7046,0,0,-1.6997,-1.6998,0,0,0,0,0,0,0,0,-1.7035,-1.7036,-1.7038,-1.7036,-1.7033,-1.7026,-1.7042,-1.7053,-1.7,-1.7011,-1.6994,-1.6992,-1.7003,-1.7004,-1.7007,-1.7046,-1.7046,-1.6997,-1.6998,-1.6999,-1.7,0,0,0,0,0,0,0,-1.7034,-1.7036,-1.7061,-1.7039,-1.7035,-1.7021,-1.702,-1.7044,-1.702,-1.701,-1.7006,-1.7006,-1.7001,-1.7006,-1.7007,-1.7046,-1.6997,-1.6999,-1.7,-1.7001,-1.7129,-1.7132,0,0,0,0,0,0,-1.7038,-1.7036,-1.7062,-1.7061,-1.7028,-1.7024,-1.7022,-1.7031,-1.7019,-1.7015,-1.7008,-1.7003,-1.7004,-1.7005,-1.7006,-1.7069,-1.6999,-1.7001,-1.7002,-1.7127,-1.713,-1.7132,0,0,0,0,0,0,-1.7037,-1.7041,-1.7062,-1.7048,-1.7049,-1.7027,-1.7037,-1.7032,-1.7036,-1.7017,-1.7013,-1.7016,-1.7002,-1.7004,-1.7037,-1.7068,-1.7002,-1.7003,-1.7124,-1.7128,-1.7131,-1.7196,0,0,0,0,0,0,-1.7037,-1.7041,-1.7061,-1.7048,-1.705,-1.7092,-1.7039,-1.7033,-1.7039,-1.7033,-1.7024,-1.7021,-1.7,-1.7034,-1.7038,-1.7069,-1.7005,-1.7121,-1.7126,-1.713,-1.7191,-1.7201,-1.721,0,0,0,0,0,-1.7036,-1.708,-1.7062,-1.7066,-1.7075,-1.7094,-1.7095,-1.707,-1.7042,-1.7062,-1.705,-1.7021,-1.7064,-1.7038,-1.7042,-1.7074,-1.7119,-1.7125,-1.713,-1.7186,-1.7199,-1.721,0,0,0,0,0,0,-1.7097,-1.7078,-1.7058,-1.7099,-1.7099,-1.7084,-1.7108,-1.7084,-1.7092,-1.7086,-1.7055,-1.7054,-1.7091,-1.7086,-1.7057,-1.7127,-1.7087,-1.7093,-1.7128,-1.714,-1.715,-1.715,-1.7006,0,0,0,0,0,-1.7115,-1.7132,-1.7114,-1.7153,-1.7153,-1.7131,-1.7139,-1.712,-1.7118,-1.7117,-1.7108,-1.7108,-1.7121,-1.7131,-1.7142,-1.719,-1.7187,-1.7215,-1.7224,-1.7232,-1.7238,-1.7262,-1.7274,-1.715,-1.715,-1.715,0,0,-1.7153,-1.7145,-1.7157,-1.7165,-1.7162,-1.718,-1.7131,-1.7153,-1.7166,-1.7121,-1.7151,-1.7144,-1.7142,-1.7183,-1.72,-1.718,-1.7272,-1.7239,-1.7245,-1.7246,-1.7269,-1.7281,-1.7291,-1.7153,-1.7153,-1.7152,0,0,-1.7231,-1.7227,-1.7258,-1.7256,-1.7252,-1.7238,-1.7245,-1.7235,-1.7228,-1.7258,-1.7224,-1.724,-1.7264,-1.7264,-1.7267,-1.7347,-1.732,-1.7352,-1.7401,-1.7426,-1.7435,-1.7444,-1.7472,-1.7482,-1.7357,-1.7357,-1.7358,0,-1.7279,-1.7304,-1.7277,-1.73,-1.7305,-1.7265,-1.7296,-1.7296,-1.7297,-1.7301,-1.7278,-1.7307,-1.7303,-1.7343,-1.7363,-1.7367,-1.7375,-1.7351,-1.7436,-1.7445,-1.7452,-1.7478,-1.7489,-1.7361,-1.7361,-1.736,-1.736,0,-1.7363,-1.7381,-1.7407,-1.7408,-1.7415,-1.7443,-1.742,-1.7432,-1.7412,-1.74,-1.7432,-1.7425,-1.7435,-1.7443,-1.7425,-1.7481,-1.7468,-1.7442,-1.74,-1.7468,-1.7492,-1.7502,-1.7367,-1.7365,-1.7364,-1.7363,0,0,-1.7477,-1.7464,-1.7473,-1.7473,-1.7467,-1.7481,-1.7507,-1.7516,-1.7526,-1.7528,-1.7549,-1.7571,-1.7546,-1.755,-1.7531,-1.7553,-1.7616,-1.7524,-1.7523,-1.754,-1.7677,-1.7696,-1.7708,-1.7599,-1.7601,-1.7602,-1.7677,0,-1.7552,-1.7594,-1.7571,-1.7617,-1.7634,-1.7597,-1.762,-1.7619,-1.7609,-1.7622,-1.7611,-1.7626,-1.7593,-1.7595,-1.7615,-1.7604,-1.7643,-1.7599,-1.7618,-1.7619,-1.7618,-1.772,-1.7741,-1.7811,-1.7686,-1.7688,-1.7689,0,-1.7643,-1.7649,-1.7696,-1.7687,-1.7693,-1.7714,-1.772,-1.7733,-1.7732,-1.7723,-1.7728,-1.7704,-1.773,-1.7691,-1.7726,-1.7696,-1.7703,-1.7699,-1.7701,-1.7701,-1.7657,-1.7722,-1.7833,-1.7843,-1.7703,-1.7702,-1.7701,0,-1.7721,-1.7741,-1.7771,-1.7773,-1.7763,-1.7778,-1.7775,-1.7771,-1.7778,-1.7785,-1.7789,-1.7798,-1.7803,-1.7811,-1.7791,-1.7765,-1.7829,-1.7788,-1.7822,-1.7823,-1.7836,-1.7835,-1.7949,-1.7843,-1.7843,-1.7843,-1.7843,0,-1.7805,-1.7835,-1.7806,-1.7825,-1.7858,-1.7832,-1.7866,-1.7859,-1.7856,-1.7873,-1.7843,-1.786,-1.7833,-1.7848,-1.7833,-1.7864,-1.7867,-1.7861,-1.7856,-1.7862,-1.7863,-1.7865,-1.7859,-1.7846,-1.7845,-1.7845,-1.7844,0,-1.7896,-1.7878,-1.7909,-1.7897,-1.7895,-1.792,-1.791,-1.7928,-1.7916,-1.7938,-1.7942,-1.7924,-1.794,-1.7922,-1.7936,-1.7926,-1.7968,-1.7957,-1.7968,-1.7964,-1.7999,-1.7995,-1.8116,-1.813,-1.8018,-1.8019,-1.802,0,-1.795,-1.7972,-1.7963,-1.7972,-1.7971,-1.7986,-1.7993,-1.7969,-1.7977,-1.7978,-1.7995,-1.8009,-1.8018,-1.8045,-1.8033,-1.8045,-1.8033,-1.8074,-1.8034,-1.804,-1.8032,-1.803,-1.8032,-1.8082,-1.8083,-1.8084,-1.8085,0,-1.8047,-1.8037,-1.8048,-1.8056,-1.8065,-1.807,-1.8073,-1.8083,-1.8058,-1.8069,-1.8085,-1.8092,-1.8107,-1.812,-1.8128,-1.8126,-1.8101,-1.8099,-1.8107,-1.8113,-1.8118,-1.8114,-1.7989,-1.8095,-1.8094,-1.8094,-1.8093,-1.8093,-1.812,-1.8138,-1.8134,-1.8148,-1.8148,-1.8151,-1.8167,-1.8158,-1.817,-1.8179,-1.8165,-1.8185,-1.8184,-1.8192,-1.8192,-1.8207,-1.819,-1.8202,-1.8205,-1.8208,-1.8212,-1.8117,-1.8209,-1.8209,-1.8209,-1.8208,-1.8208,0,-1.8214,-1.821,-1.8223,-1.8228,-1.8239,-1.8216,-1.8218,-1.8228,-1.8246,-1.8247,-1.8256,-1.8275,-1.8288,-1.8278,-1.8289,-1.8304,-1.8293,-1.8307,-1.8305,-1.8305,-1.8228,-1.8219,-1.8316,-1.8316,-1.8316,-1.8316,-1.8316,-1.8316,-1.8264,-1.8293,-1.8283,-1.8313,-1.8309,-1.8327,-1.833,-1.8334,-1.8334,-1.8356,-1.8367,-1.836,-1.8357,-1.8368,-1.838,-1.8376,-1.8381,-1.84,-1.8393,-1.8321,-1.831,-1.83,-1.8291,-1.8401,-1.8401,-1.8467,-1.8468,-1.8469]},{"header":{"parameterUnit":"m.s-1","parameterCategory":1,"la1":30.2991,"la2":30.254,"lo1":-89.0895,"lo2":-89.0444,"dy":0.0017,"dx":0.0017,"nx":28,"ny":28,"refTime":"2024-10-06T09:00:00:Z","depth":0,"parameterNumber":3,"parameterNumberName":"V-component_of_WINDS"},"data":[0,0,0,0,0,0,0,0,0,0,0,0,0,0,0,0,0,0,0,0,0,0,0,0,0,0,0,0,0,0,0,0,0,0,0,0,0,0,0,0,0,0,0,0,0,0,0,0,0,0,0,0,0,0,0,0,0,0,-2.5674,-2.5674,0,-2.569,-2.569,-2.569,-2.5675,-2.5674,-2.5674,-2.5673,-2.5689,-2.569,-2.5691,0,0,0,0,0,0,0,0,0,0,0,0,0,-2.5632,-2.5633,-2.5674,-2.5674,-2.5675,-2.569,-2.569,-2.569,-2.5675,-2.5674,-2.5674,-2.5673,-2.5689,-2.569,-2.5691,0,0,0,0,0,0,0,0,0,0,0,0,0,-2.5649,-2.5633,-2.5674,-2.5669,-2.5668,-2.569,-2.569,-2.569,-2.5675,-2.5674,-2.5673,-2.5673,-2.5689,-2.569,-2.5691,-2.5719,0,0,-2.5696,-2.5697,0,0,0,0,0,0,0,0,-2.5648,-2.5651,-2.5669,-2.5669,-2.5669,-2.568,-2.5681,-2.57,-2.5675,-2.5673,-2.5673,-2.5672,-2.5687,-2.5688,-2.5693,-2.572,-2.572,-2.5696,-2.5697,-2.5698,-2.5698,0,0,0,0,0,0,0,-2.5647,-2.565,-2.568,-2.567,-2.5669,-2.5666,-2.5667,-2.5685,-2.5685,-2.5673,-2.5672,-2.5674,-2.5686,-2.5692,-2.5694,-2.5721,-2.5696,-2.5697,-2.5698,-2.5699,-2.5771,-2.5772,0,0,0,0,0,0,-2.5646,-2.5649,-2.568,-2.5681,-2.5656,-2.5667,-2.5669,-2.5677,-2.5684,-2.5685,-2.5675,-2.5673,-2.569,-2.5692,-2.5694,-2.5727,-2.5698,-2.5699,-2.57,-2.577,-2.5771,-2.5773,0,0,0,0,0,0,-2.5645,-2.5649,-2.5679,-2.5665,-2.5668,-2.5669,-2.5678,-2.5678,-2.5683,-2.5686,-2.5686,-2.568,-2.5689,-2.5692,-2.5713,-2.5727,-2.57,-2.5701,-2.5769,-2.5771,-2.5772,-2.5792,0,0,0,0,0,0,-2.5644,-2.5649,-2.5659,-2.5665,-2.5669,-2.5698,-2.5679,-2.5679,-2.5686,-2.5684,-2.5691,-2.5691,-2.5689,-2.5711,-2.5714,-2.5729,-2.5702,-2.5768,-2.577,-2.5771,-2.579,-2.5794,-2.5798,0,0,0,0,0,-2.5643,-2.5664,-2.566,-2.5663,-2.5682,-2.5698,-2.5701,-2.5697,-2.5687,-2.5697,-2.5699,-2.5691,-2.5725,-2.5713,-2.5717,-2.5732,-2.5767,-2.5769,-2.5771,-2.5789,-2.5793,-2.5798,0,0,0,0,0,0,-2.5659,-2.5664,-2.566,-2.5683,-2.5691,-2.5696,-2.5708,-2.5703,-2.5713,-2.5711,-2.5706,-2.5708,-2.573,-2.5733,-2.572,-2.5759,-2.5744,-2.5748,-2.5756,-2.5761,-2.5764,-2.5763,-2.5704,0,0,0,0,0,-2.5665,-2.5678,-2.5683,-2.5703,-2.5707,-2.5707,-2.5714,-2.5712,-2.5719,-2.5722,-2.5725,-2.5733,-2.5745,-2.5753,-2.5765,-2.5791,-2.5793,-2.5804,-2.5807,-2.581,-2.5813,-2.5827,-2.5832,-2.578,-2.578,-2.578,0,0,-2.5678,-2.5683,-2.5691,-2.5706,-2.5712,-2.5725,-2.571,-2.5725,-2.5735,-2.5724,-2.5744,-2.5747,-2.5755,-2.5779,-2.579,-2.5782,-2.5828,-2.5813,-2.5816,-2.5816,-2.583,-2.5835,-2.584,-2.5782,-2.5781,-2.5781,0,0,-2.5709,-2.5714,-2.5731,-2.5738,-2.5746,-2.5746,-2.5751,-2.5757,-2.5759,-2.5779,-2.5771,-2.5784,-2.5805,-2.5812,-2.5818,-2.5853,-2.5846,-2.5857,-2.5876,-2.589,-2.5894,-2.5898,-2.591,-2.5915,-2.586,-2.586,-2.586,0,-2.5724,-2.5744,-2.5741,-2.5757,-2.5764,-2.5756,-2.5774,-2.578,-2.5792,-2.5797,-2.5789,-2.5816,-2.5821,-2.5847,-2.5856,-2.5861,-2.5866,-2.5856,-2.5894,-2.5898,-2.5901,-2.5913,-2.5917,-2.5861,-2.5861,-2.5861,-2.5861,0,-2.5762,-2.5776,-2.579,-2.5802,-2.581,-2.5827,-2.5828,-2.5837,-2.5834,-2.5836,-2.5857,-2.5863,-2.5876,-2.5882,-2.5879,-2.5908,-2.5903,-2.5895,-2.5879,-2.5907,-2.5918,-2.5923,-2.5863,-2.5863,-2.5862,-2.5862,0,0,-2.5801,-2.5812,-2.5817,-2.5823,-2.5833,-2.5844,-2.5861,-2.5874,-2.5882,-2.5892,-2.5906,-2.5925,-2.5918,-2.5925,-2.5923,-2.5936,-2.5964,-2.5926,-2.5926,-2.5932,-2.5996,-2.6001,-2.6006,-2.596,-2.5961,-2.5961,-2.5995,0,-2.5831,-2.586,-2.5859,-2.5887,-2.59,-2.5894,-2.5909,-2.5917,-2.5919,-2.5931,-2.5934,-2.5948,-2.5938,-2.5942,-2.5954,-2.5958,-2.5976,-2.5955,-2.5973,-2.5974,-2.597,-2.6012,-2.6017,-2.6049,-2.5999,-2.6,-2.6,0,-2.587,-2.5881,-2.5909,-2.5918,-2.5924,-2.5937,-2.595,-2.5962,-2.5971,-2.5972,-2.5981,-2.5977,-2.5996,-2.5981,-2.6006,-2.5992,-2.6,-2.6003,-2.6004,-2.6004,-2.5988,-2.6013,-2.6058,-2.6063,-2.6007,-2.6007,-2.6006,0,-2.5894,-2.5916,-2.5937,-2.5942,-2.5953,-2.5963,-2.5968,-2.5976,-2.5984,-2.5996,-2.6001,-2.6015,-2.6022,-2.6033,-2.6033,-2.6023,-2.6059,-2.6044,-2.606,-2.606,-2.6067,-2.6066,-2.6113,-2.6074,-2.6073,-2.6073,-2.6073,0,-2.5927,-2.5945,-2.5948,-2.596,-2.5981,-2.598,-2.6,-2.6004,-2.6013,-2.6026,-2.6022,-2.6035,-2.6035,-2.6049,-2.6049,-2.607,-2.6074,-2.6075,-2.6075,-2.6075,-2.6075,-2.6079,-2.6076,-2.6075,-2.6074,-2.6074,-2.6074,0,-2.5957,-2.596,-2.5982,-2.5991,-2.5994,-2.6008,-2.6016,-2.6028,-2.6031,-2.6048,-2.6053,-2.6057,-2.6073,-2.6075,-2.6094,-2.6094,-2.6119,-2.6117,-2.6116,-2.6115,-2.6131,-2.6129,-2.6181,-2.6188,-2.6145,-2.6145,-2.6146,0,-2.5977,-2.5991,-2.6002,-2.6011,-2.6017,-2.6031,-2.604,-2.6041,-2.605,-2.6063,-2.6074,-2.6089,-2.6101,-2.6127,-2.6132,-2.6147,-2.6145,-2.6162,-2.6147,-2.6146,-2.6144,-2.6143,-2.6144,-2.6164,-2.6165,-2.6165,-2.6166,0,-2.6013,-2.6014,-2.6027,-2.6041,-2.6051,-2.6062,-2.6072,-2.608,-2.6082,-2.6094,-2.611,-2.6119,-2.6139,-2.6154,-2.6169,-2.6175,-2.6171,-2.6171,-2.6175,-2.6174,-2.6173,-2.6174,-2.6123,-2.6169,-2.6169,-2.6169,-2.6168,-2.6168,-2.6038,-2.605,-2.606,-2.6075,-2.6083,-2.6093,-2.6105,-2.611,-2.6124,-2.6139,-2.614,-2.6158,-2.6168,-2.6188,-2.6195,-2.6209,-2.6204,-2.621,-2.6211,-2.6213,-2.6214,-2.6172,-2.6212,-2.6212,-2.6212,-2.6212,-2.6212,0,-2.6072,-2.6079,-2.6093,-2.6108,-2.612,-2.6116,-2.6128,-2.6138,-2.6154,-2.6164,-2.6177,-2.6196,-2.6212,-2.6219,-2.6235,-2.6245,-2.6244,-2.6249,-2.6247,-2.6249,-2.6218,-2.6213,-2.625,-2.625,-2.625,-2.625,-2.625,-2.625,-2.6092,-2.6112,-2.6115,-2.614,-2.6146,-2.6164,-2.6171,-2.618,-2.6189,-2.6211,-2.6224,-2.6229,-2.6238,-2.6255,-2.6269,-2.6271,-2.6277,-2.6283,-2.6284,-2.6255,-2.6251,-2.6247,-2.6242,-2.6285,-2.6285,-2.6313,-2.6314,-2.6314]}]]